STARLINK-2437

operational
NORAD ID: 48102 Int'l Des: 2021-027 Owner: SPXS Country: US Constellation: starlink
LEOCIRCULAR

About STARLINK-2437

Description loading...

Live Position

Loading 3D Globe...

Upcoming Passes

Altitude History

Altitude vs Time

uPlot chart will show altitude changes over time

Two-Line Element Set

1 48102U 21027L 25251.58337963 .00309927 00000-0 12714-2 0 9993
2 48102 53.0437 225.0878 0006163 83.4598 299.6259 15.84638260 5824
Epoch: Sep 8, 2025 • Age: 13 hours

Current Status

Altitude 319.8 km
Velocity 7.72 km/s
Sub-Earth Point -8.09°S, 17.93°E
Launch Date Apr 7, 2021
Age 4.4 years
Type internet

Technical Details

Classification Payload
Mass 260.00 kg
Dry Mass 248.00 kg
Total Mass 260.00 kg
Length 0.20 m
Diameter 2.80 m
Span 9.00 m
Shape Box + pan
Manufacturer SPXS
Bus Type Starlink
Phase Status In Orbit
Owner/State SPXS/US

Large Constellations

Loading constellations...